Location: Ariedna Mine
(37.8567°N, 107.6708°W)
Time: 03:13:10
(UTC+00:00)

Daily predictions for brighter satellites

Satellite Brightness Start Highest point End
(mag) Time Altitude Azimuth Time Altitude Azimuth Time Altitude Azimuth
NOSS 3-4 (A) 3.3 02:42:25 10° SSW 02:47:59 65° ESE 02:53:51 10° NE
NOSS 3-4 (C) 3.3 02:42:28 10° SSW 02:48:02 64° ESE 02:53:56 10° NE
CZ-4B R/B 2.9 02:48:16 10° NE 02:50:27 17° E 02:52:36 10° SE
Cosmos 968 Rocket 3.4 02:46:44 10° SSW 02:51:52 78° ESE 02:57:01 10° NNE
OE (NEXTSAT) 4.1 02:48:45 10° SW 02:52:01 73° SSE 02:55:20 10° ENE
MetOp-A 3.5 02:50:04 10° SSE 02:54:05 57° ENE 02:57:55 10° N
COBE Rocket 4.3 02:49:22 10° SSE 02:54:16 50° ENE 02:59:07 10° N
Cosmos 2219 4.2 02:49:38 10° N 02:54:35 30° ENE 02:59:29 10° ESE
NOSS 3-2 (A) 4.4 02:48:40 10° NW 02:56:32 78° WSW 03:05:20 10° SSE
H-2A R/B 2.1 02:57:54 10° NNE 03:01:53 50° E 03:05:52 10° S
Cosmos 1328 Rocket 3.7 03:00:12 10° S 03:04:22 53° E 03:08:35 10° NNE
OBJECT-B 2.4 03:03:07 10° SSW 03:05:44 30° W 03:08:21 10° NNW
Cosmos 2263 Rocket 4.5 03:05:56 10° NE 03:06:05 10° NE 03:06:12 10° NE
Cosmos 1656 4.3 03:00:52 10° SSW 03:06:24 62° WNW 03:11:53 10° NNE
USA 186 2.4 03:05:04 10° S 03:07:23 38° W 03:09:39 10° NNW
Meteor 2-6 Rocket 4.2 03:03:05 10° S 03:08:28 86° W 03:13:57 10° N
RESURS DK-1 4.2 03:09:41 11° ESE 03:10:44 12° ESE 03:12:27 10° ENE
Aureole 1 Rocket 3.0 03:07:40 10° S 03:10:49 32° ESE 03:13:36 10° NE
Cosmos 1536 4.2 03:07:53 10° NNE 03:11:05 22° ENE 03:13:43 13° ESE
Cosmos 2208 Rocket 4.2 03:06:03 10° NNW 03:11:27 63° ENE 03:16:45 10° SSE
Cosmos 2344 3.6 03:06:12 10° S 03:13:47 52° ESE 03:20:53 10° NE
NOSS 3-2 (C) 4.2 03:07:17 10° NNW 03:15:09 84° ENE 03:23:44 11° SSE
SL-4 R/B 3.5 03:14:10 10° NW 03:18:19 33° NNE 03:22:14 10° E
CSL-04 Rocket 4.2 03:13:31 10° S 03:18:43 58° W 03:24:00 10° NNW
Cosmos 1544 3.5 03:15:44 10° NNW 03:19:13 60° W 03:22:40 10° S
Ariane Rocket 3.7 03:18:14 13° SE 03:22:15 36° ENE 03:26:52 10° N
CENTAUR R/B 3.7 03:15:11 10° NW 03:23:35 63° WSW 03:32:29 10° SSE
Cosmos 2227 Rocket 2.4 03:18:12 10° NNW 03:23:49 60° ENE 03:28:31 15° SE
Cosmos 1151 Rocket 4.0 03:22:47 10° SSW 03:26:56 48° W 03:31:04 10° N
Cosmos 1980 Rocket 2.5 03:23:39 10° S 03:28:56 44° ESE 03:34:15 10° NE
ASTRO E2 3.7 03:27:08 10° WSW 03:30:35 29° S 03:32:29 19° SE
Resurs 1-3 3.9 03:26:30 10° S 03:30:52 69° W 03:35:14 10° NNW
Cosmos 1666 Rocket 4.0 03:29:52 10° NNW 03:34:13 64° W 03:38:37 10° S
USA 238 DEB 4.1 03:27:51 10° NW 03:35:16 76° WSW 03:42:07 14° SSE
USA 238 4.1 03:27:58 10° NW 03:35:23 77° WSW 03:42:12 14° SSE
Cosmos 2369 3.7 03:31:18 10° S 03:36:50 61° ESE 03:42:24 10° NNE
MOS 1 4.3 03:33:05 12° SSE 03:38:17 78° ENE 03:43:57 10° N
Cosmos 1072 Rocket 4.4 03:32:36 10° S 03:38:37 65° E 03:44:40 10° NNE
Cosmos 44 4.5 03:34:51 10° NW 03:38:40 31° WSW 03:42:31 10° S
SL-12 R/B (Aux Motor) 3.5 03:36:37 10° WSW 03:39:55 84° SSE 03:41:17 17° ENE
USA 129 3.8 03:42:09 12° W 03:42:09 12° W 03:42:27 10° W
SJ 16-02 2.1 03:39:51 20° SSE 03:42:06 32° E 03:46:00 10° NE
Terra 3.9 03:40:18 11° E 03:42:12 13° ENE 03:44:23 10° NE
Cosmos 1633 Rocket 3.4 03:38:45 10° NNW 03:43:05 63° W 03:47:22 10° S
Cosmos 1697 Rocket 3.3 03:42:28 10° SW 03:48:03 61° WNW 03:53:41 10° NNE
OAO 3 Rocket 3.3 03:45:10 10° W 03:50:00 60° S 03:52:52 24° ESE
Landsat 7 4.4 03:46:23 10° S 03:50:59 55° W 03:55:38 10° NNW
SPOT 3 Rocket 4.0 03:49:43 23° SE 03:52:31 44° ENE 03:57:24 10° N
Cosmos 1354 Rocket 4.0 03:48:26 10° S 03:53:35 60° ESE 03:58:48 10° NNE
Cosmos 1470 Rocket 3.5 03:49:27 10° N 03:53:47 85° W 03:56:45 20° S
Cosmos 1515 3.9 03:50:45 10° SSW 03:54:29 68° W 03:58:15 10° N
Resurs 01 Rocket 1.7 03:53:43 18° S 03:56:56 74° WSW 04:01:21 10° NNW
Cosmos 2297 Rocket 3.2 03:55:19 10° NW 04:00:37 43° WSW 04:05:26 12° S
MetOp-B 4.1 03:59:02 24° SSE 04:02:16 71° ENE 04:07:37 10° N
Cosmos 1515 Rocket 4.0 03:59:38 10° SSW 04:03:55 60° W 04:08:16 10° N
Cosmos 389 Rocket 2.3 04:02:01 10° N 04:05:32 83° E 04:06:38 42° SSE
Cosmos 405 4.1 04:02:45 10° NNW 04:05:56 38° W 04:08:03 18° SSW
Cosmos 1340 3.3 04:03:05 10° SSW 04:06:44 53° W 04:10:24 10° N
Cosmos 2034 Rocket 4.0 04:01:51 16° S 04:06:54 70° E 04:13:13 10° NNE
Cosmos 1184 Rocket 3.2 04:05:15 22° SSW 04:06:58 55° W 04:09:56 10° N
ATLAS 5 CENTAUR R/B 4.0 04:04:43 10° WSW 04:08:16 12° SW 04:10:44 10° SSW
USA 215 4.5 04:07:34 10° ENE 04:10:52 20° ESE 04:10:52 20° ESE
SL-16 R/B 3.1 04:15:42 27° ESE 04:15:51 27° ESE 04:20:31 10° NE
Cosmos 2228 Rocket 3.3 04:14:39 38° SE 04:16:00 52° E 04:20:26 10° NNE
Cosmos 921 Rocket 3.1 04:11:53 10° N 04:16:23 64° ENE 04:17:43 42° SE
CARTOSAT-1 3.4 04:15:24 38° SSE 04:17:00 82° ENE 04:21:19 10° N
Cosmos 1743 3.1 04:14:58 10° NNW 04:18:41 57° W 04:20:13 31° SSW
Cosmos 1346 Rocket 4.3 04:21:06 23° ENE 04:21:06 23° ENE 04:23:37 10° NE
CZ-4B R/B 4.1 04:19:42 10° NNW 04:21:56 18° WNW 04:24:09 10° WSW
Cosmos 1869 Rocket 3.8 04:17:41 10° N 04:22:05 51° E 04:22:58 44° ESE
Meteor 1-18 Rocket 4.3 04:22:32 34° SSE 04:24:48 56° E 04:30:19 10° NNE
USA 245 4.4 04:28:38 32° S 04:31:27 83° WSW 04:37:48 10° NNW
ATLAS 2AS CENTAUR R/B 3.1 04:25:51 10° SW 04:33:41 80° WNW 04:41:22 10° NNE
ERS-1 Rocket 3.1 04:32:43 44° ESE 04:34:00 57° ENE 04:38:56 10° N
Cosmos 2278 3.7 04:30:19 11° SSW 04:35:47 82° WNW 04:41:30 10° NNE
ARIANE 5 R/B 3.4 04:38:20 36° E 04:38:41 37° ENE 04:42:48 10° N
Cosmos 2219 4.4 04:33:40 10° NW 04:38:41 34° WSW 04:41:46 20° SSW
Cosmos 2360 Rocket 3.9 04:43:37 17° E 04:43:37 17° E 04:45:57 10° NE
Cosmos 1707 Rocket 3.7 04:43:16 54° E 04:43:16 54° E 04:47:34 10° NNE
Cosmos 2082 3.9 04:40:37 10° NNW 04:46:10 62° WSW 04:48:03 40° S
Okean 1 4.4 04:44:52 27° SW 04:46:32 42° W 04:50:22 10° N
RESURS DK-1 3.3 04:45:23 17° SW 04:48:15 47° WNW 04:52:14 10° NNE
EXPRESS MD2 3.2 04:44:23 10° NW 04:48:30 65° WNW 04:48:30 65° WNW
Cosmos 1428 Rocket 4.5 04:42:38 10° N 04:48:57 71° E 04:50:52 46° SSE
Cosmos 1378 3.2 04:50:33 72° NNW 04:50:33 72° NNW 04:53:57 10° N
Cosmos 2263 Rocket 2.2 04:45:28 10° NNW 04:51:03 70° ENE 04:52:15 53° SE
SL-4 R/B 2.7 04:53:44 10° WNW 04:57:41 44° WSW 04:57:41 44° WSW
CZ-2C R/B 4.2 04:59:13 10° N 05:03:55 61° WNW 05:05:24 40° SW
ATLAS 3B R/B 3.6 04:58:08 10° NNW 05:05:08 43° NE 05:08:17 30° E
Cosmos 2227 Rocket 4.4 05:03:47 10° WNW 05:07:16 17° W 05:10:21 11° SW
Cosmos 1092 Rocket 4.0 05:02:14 10° N 05:08:24 77° W 05:10:09 49° SSW
Cosmos 1634 Rocket 4.0 05:08:17 42° SSW 05:10:32 78° W 05:16:45 10° N
Cosmos 1980 Rocket 4.3 05:08:31 10° WSW 05:13:05 25° WNW 05:17:43 10° N
ISS -1.7 05:10:09 10° NNW 05:12:25 26° N 05:12:25 26° N
SPOT 5 3.6 05:13:35 42° SW 05:14:45 50° W 05:19:49 10° NNW
Cosmos 2142 Rocket 4.5 05:13:34 57° SSE 05:14:50 74° E 05:21:14 10° N
Cosmos 1975 3.3 05:13:10 10° NNW 05:16:41 57° NW 05:16:41 57° NW
Cosmos 990 Rocket 4.2 05:17:59 54° ENE 05:17:59 54° ENE 05:22:32 10° NNE
Cosmos 1733 Rocket 3.3 05:13:01 10° N 05:16:54 62° NNE 05:16:54 62° NNE
Helios 1A Rocket 4.4 05:17:41 28° W 05:17:49 28° W 05:21:17 10° NW
Terra 1.9 05:19:10 63° WSW 05:19:22 63° W 05:24:06 10° NNW
Gblst 52 Del rocket 4.3 05:12:59 10° SW 05:19:55 87° SE 05:25:57 10° NE
Cosmos 2322 Rocket 2.0 05:20:36 71° ESE 05:20:39 71° ESE 05:26:15 10° NNE
SJ 16-02 3.7 05:17:28 10° WSW 05:20:42 20° WNW 05:23:56 10° NNW
Cosmos 2333 Rocket 3.8 05:25:37 20° ENE 05:25:37 20° ENE 05:28:09 10° NE
Meteor 2-4 Rocket 4.3 05:22:05 36° SW 05:24:13 54° WNW 05:29:47 10° N
Meteor 2-15 Rocket 4.3 05:23:45 65° S 05:24:43 87° E 05:30:49 10° N
Cosmos 1862 Rocket 3.8 05:26:25 67° NNW 05:26:25 67° NNW 05:30:22 10° N
SL-24 R/B - RUBIN 2 3.9 05:23:05 10° NNW 05:26:59 62° NNE 05:26:59 62° NNE
Cosmos 1898 Rocket 4.2 05:29:35 41° ENE 05:29:35 41° ENE 05:33:34 10° NNE
Cosmos 1844 Rocket 3.8 05:25:59 10° N 05:30:52 30° ENE 05:31:29 29° ENE
Cosmos 2026 Rocket 4.4 05:28:29 10° NNW 05:34:30 55° W 05:35:58 44° SW
Cosmos 2219 Rocket 3.8 05:47:59 22° ENE 05:47:59 22° ENE 05:50:40 10° NE
Cosmos 2227 4.5 05:44:51 10° NNW 05:50:29 57° WSW 05:50:30 57° WSW
USA 215 3.2 05:49:19 10° NE 05:55:54 87° NW 05:58:09 45° SW
SL-16 R/B 3.3 05:57:29 28° WSW 05:59:43 39° WNW 06:05:01 10° N
ADEOS Rocket 4.2 06:03:06 25° ENE 06:03:38 26° ENE 06:08:21 10° N
Cosmos 1726 4.4 06:00:54 10° N 06:02:20 21° NNE 06:02:20 21° NNE
Okean 1-7 4.2 06:09:26 41° N 06:09:26 41° N 06:12:20 10° N
Cosmos 2266 Rocket 3.8 06:04:00 10° N 06:10:11 83° ENE 06:10:11 83° ENE
Meteor 1-15 Rocket 4.3 06:10:19 10° N 06:15:29 71° NNE 06:15:29 71° NNE
COSMOS 2428 4.0 06:18:12 29° ENE 06:18:12 29° ENE 06:21:32 10° NE
Meteor 2-10 4.4 06:14:25 10° NNW 06:18:44 57° NW 06:18:44 57° NW
Cosmos 2360 Rocket 2.7 06:25:20 52° WNW 06:25:34 52° WNW 06:31:06 10° NNE
USA 267 4.5 06:24:07 16° E 06:28:35 36° NNE 06:34:26 10° NNW
Cosmos 2333 4.4 06:30:03 67° N 06:30:03 67° N 06:34:54 10° NNE
Cosmos 2263 Rocket 4.4 06:31:35 10° WNW 06:33:56 14° W 06:33:56 14° W
ATLAS CENTAUR R/B 2.9 06:34:23 10° NNW 06:37:56 38° NNE 06:37:56 38° NNE
Cosmos 1937 Rocket 4.2 06:41:33 48° NW 06:41:33 48° NW 06:46:10 10° N
Cosmos 1867 4.4 06:47:31 45° NE 06:47:31 45° NE 06:51:20 10° NE
Cosmos 2278 Rocket 4.2 06:44:56 10° N 06:48:52 19° NE 06:50:48 16° E
Meteor 1-22 Rocket 4.5 06:44:51 10° NNW 06:50:17 72° NW 06:50:17 72° NW
ATLAS 3B R/B 3.5 06:48:56 10° NW 06:55:31 42° WSW 06:55:31 42° WSW
Cosmos 1553 Rocket 4.1 07:01:53 63° ENE 07:01:53 63° ENE 07:07:27 10° NNE
SL-08 ROCKET BODY 4.5 06:56:19 10° N 07:01:31 71° N 07:01:31 71° N
NOSS 3-1 (C) 4.2 06:58:00 10° NNW 07:05:45 74° ENE 07:07:55 54° ESE
ALOS 2 4.3 07:08:07 29° NW 07:08:07 29° NW 07:10:26 10° NNW
Cosmos 1244 Rocket 4.5 07:00:15 10° N 07:06:15 78° NE 07:06:15 78° NE
Cosmos 2333 Rocket 3.0 07:07:35 42° WNW 07:07:39 42° WNW 07:13:01 10° N
Cosmos 2322 4.1 07:08:24 58° NW 07:08:24 58° NW 07:13:38 10° NNE
Cosmos 1818 4.3 07:02:46 10° NW 07:06:37 46° NW 07:06:37 46° NW
Nadezhda 2 Rocket 4.5 07:02:30 10° N 07:08:11 77° N 07:08:11 77° N
Cosmos 1844 Rocket 4.0 07:09:43 10° NW 07:13:07 29° WNW 07:13:07 29° WNW
NOSS 0 Rocket 4.1 07:25:16 65° ENE 07:25:16 65° ENE 07:30:50 10° NNE
CZ-4C R/B 3.2 07:18:09 10° NNW 07:25:41 69° NE 07:28:18 47° ESE
Cosmos 2219 Rocket 3.2 07:29:40 37° WNW 07:29:45 37° WNW 07:34:54 10° N
Lacrosse 5 3.9 07:35:14 19° E 07:35:14 19° E 07:37:04 10° ENE
Cosmos 371 Rocket 4.2 07:40:34 45° NNE 07:40:34 45° NNE 07:43:58 10° NNE
Meteor 1-16 Rocket 4.4 07:34:18 10° N 07:39:51 70° NE 07:39:51 70° NE
Cosmos 1745 Rocket 3.9 07:37:05 10° N 07:43:10 77° ENE 07:43:10 77° ENE
ASTEX 1 4.3 07:39:30 10° N 07:43:05 43° NNW 07:43:05 43° NNW
Cosmos 2150 Rocket 4.5 07:47:58 57° N 07:47:58 57° N 07:52:05 10° NNE
CZ-2D R/B 3.9 07:43:54 10° NE 07:47:44 21° E 07:47:44 21° E
ADEOS Rocket 3.8 07:50:02 35° WNW 07:50:02 35° WNW 07:54:18 10° NNW
Cosmos 1953 4.3 07:46:47 10° N 07:48:48 28° N 07:48:48 28° N
Okean 1 Rocket 4.3 07:49:52 10° N 07:52:44 39° N 07:52:44 39° N
Cosmos 2237 Rocket 2.3 07:58:41 74° NNE 07:58:41 74° NNE 08:03:51 10° NNE
Cosmos 1125 Rocket 4.0 08:01:01 53° NNW 08:01:01 53° NNW 08:05:22 10° N
COSMOS 2428 4.0 08:00:10 30° WNW 08:00:38 30° WNW 08:05:37 10° N
Cosmos 883 Rocket 4.4 08:02:39 85° ESE 08:02:44 85° E 08:09:05 10° N
USA 267 3.1 08:11:25 71° WSW 08:11:25 71° WSW 08:17:48 10° NW
USA 307 4.4 08:13:59 33° N 08:13:59 33° N 08:16:56 10° NNE
Resurs 1-4 Rocket 2.9 08:11:21 10° NNE 08:16:15 40° E 08:16:15 40° E
SL-16 R/B 3.9 08:15:02 19° ESE 08:18:37 33° ENE 08:24:05 10° N
NOSS 2-2 (C) 4.5 08:14:35 10° NNW 08:20:10 85° ENE 08:21:39 59° SE
Cosmos 1943 Rocket 4.0 08:15:49 10° N 08:20:39 28° ENE 08:25:08 11° ESE
USA 229 DEB 3.8 08:14:50 10° NW 08:22:23 84° WSW 08:24:29 54° SSE
USA 229 3.8 08:14:56 10° NW 08:22:29 85° WSW 08:24:37 53° SSE
ADEOS II 3.4 08:27:05 10° NE 08:31:34 28° E 08:32:23 27° ESE
IDEFIX/ARIANE 42P 4.2 08:27:46 10° NE 08:31:55 23° E 08:33:04 22° ESE
Cosmos 1455 Rocket 3.7 08:27:55 10° N 08:31:35 54° NNE 08:31:35 54° NNE
Cosmos 839 Rocket 4.2 08:26:31 10° NNW 08:33:06 84° WSW 08:35:17 51° SSE
Cosmos 2278 Rocket 2.4 08:27:48 10° NNW 08:32:36 56° WNW 08:32:36 56° WNW
Cosmos 2315 Rocket 4.1 08:34:57 60° WSW 08:35:24 62° W 08:41:44 10° N
Cosmos 1709 Rocket 3.9 08:31:40 10° NNW 08:37:42 63° W 08:37:50 63° W
Thor Agena Rocket 3.7 08:33:22 10° N 08:38:29 63° WNW 08:38:29 63° WNW
Cosmos 332 Rocket 4.4 08:41:42 46° NW 08:41:42 46° NW 08:45:48 10° N
CZ-4 R/B 4.0 08:37:08 10° NNE 08:41:24 65° ENE 08:41:24 65° ENE
Cosmos 1975 Rocket 3.7 08:45:19 49° NNW 08:45:19 49° NNW 08:48:49 10° N
SL-16 R/B 2.1 08:45:29 72° SSE 08:45:52 76° ESE 08:51:32 10° NNE
NPP 3.8 08:40:42 10° NNE 08:46:04 63° ESE 08:46:35 59° SE
Cosmos 1455 3.8 08:43:20 10° NNE 08:46:22 29° ENE 08:46:22 29° ENE
NOSS 3-1 (A) 4.4 08:41:26 10° NW 08:49:03 49° WSW 08:50:03 47° SW
Cosmos 1025 Rocket 3.6 08:51:25 51° NNW 08:51:25 51° NNW 08:54:51 10° N
COSMOS 2455 3.1 08:57:22 50° SSE 08:58:28 57° ESE 09:04:21 10° NE
MOS 1 Rocket 3.9 09:00:29 39° ESE 09:01:21 45° ENE 09:05:26 10° N
Meteor 1-24 Rocket 3.7 09:05:48 60° WSW 09:06:24 65° W 09:11:52 10° N
ATLAS 5 CENTAUR R/B 4.1 09:01:01 10° NW 09:04:56 22° WNW 09:04:56 22° WNW
Meteor 2-10 Rocket 4.2 09:01:51 10° NNW 09:06:51 42° W 09:06:51 42° W
CZ-4C R/B 4.0 09:07:32 10° NW 09:13:24 28° WSW 09:13:24 28° WSW
Lacrosse 5 2.6 09:14:25 38° WNW 09:15:31 44° NW 09:20:24 10° NNE
Nadezhda 1 Rocket 4.1 09:13:36 40° SSE 09:16:02 74° E 09:22:19 10° N
SAR-Lupe-2 4.1 09:12:37 10° NNE 09:15:31 57° N 09:15:31 57° N
Cosmos 1269 Rocket 3.9 09:10:59 10° NNW 09:16:15 73° WSW 09:16:56 63° SSW
SME Rocket 4.3 09:17:32 30° WNW 09:17:32 30° WNW 09:20:31 10° NNW
MSX 4.4 09:12:32 10° NNE 09:18:09 50° E 09:20:38 31° SSE
Cosmos 1544 Rocket 3.5 09:14:21 10° N 09:18:37 72° WNW 09:18:37 72° WNW
Lacrosse 5 rocket 1.8 09:19:29 48° NW 09:19:29 48° NW 09:23:13 10° NNE
Helios 1A 3.8 09:19:41 31° SE 09:21:17 48° ENE 09:25:21 10° N
CZ-2D R/B 2.6 09:23:01 10° N 09:28:05 44° WNW 09:29:03 40° W
Cosmos 1703 3.3 09:32:09 64° SE 09:32:33 71° E 09:36:29 10° NNE
AQUA 4.0 09:30:46 10° N 09:35:24 54° WNW 09:36:12 48° WSW
GPS 2-04 Rocket1 4.4 09:39:12 18° SE 09:39:12 18° SE 09:40:37 10° ESE
Cosmos 1943 3.7 09:37:59 29° S 09:40:38 54° ESE 09:46:10 10° NNE
Cosmos 2237 Rocket 4.4 09:40:30 10° WNW 09:43:02 13° NW 09:45:38 10° NNW
Cosmos 2154 Rocket 4.0 09:45:11 10° NNW 09:51:28 67° W 09:54:59 27° SSW
[s.n.52708] 4.2 09:53:18 27° ESE 09:53:18 27° ESE 09:55:25 10° ENE
[s.n.52707] 4.2 09:53:24 27° ESE 09:53:24 27° ESE 09:55:32 10° ENE
[s.n.52703] 4.2 09:53:31 27° ESE 09:53:31 27° ESE 09:55:40 10° ENE
[s.n.52705] 4.2 09:53:37 27° ESE 09:53:37 27° ESE 09:55:46 10° ENE
[s.n.52706] 4.2 09:53:44 28° ESE 09:53:44 28° ESE 09:55:53 10° ENE
[s.n.52701] 4.2 09:53:51 28° ESE 09:53:51 28° ESE 09:56:00 10° ENE
[s.n.52704] 4.2 09:53:57 28° ESE 09:53:57 28° ESE 09:56:07 10° ENE
[s.n.52699] 4.1 09:54:04 28° ESE 09:54:04 28° ESE 09:56:14 10° ENE
[s.n.52702] 4.1 09:54:11 28° ESE 09:54:11 28° ESE 09:56:22 10° ENE
[s.n.52697] 4.1 09:54:18 28° ESE 09:54:18 28° ESE 09:56:29 10° ENE
[s.n.52700] 4.1 09:54:24 28° ESE 09:54:24 28° ESE 09:56:36 10° ENE
[s.n.52695] 4.1 09:54:31 28° ESE 09:54:31 28° ESE 09:56:43 10° ENE
[s.n.52698] 4.1 09:54:38 28° ESE 09:54:38 28° ESE 09:56:50 10° ENE
[s.n.52693] 4.1 09:54:45 29° ESE 09:54:45 29° ESE 09:56:58 10° ENE
[s.n.52696] 4.1 09:54:51 29° ESE 09:54:51 29° ESE 09:57:04 10° ENE
[s.n.52691] 4.1 09:54:58 29° ESE 09:54:58 29° ESE 09:57:12 10° ENE
[s.n.52689] 4.1 09:55:05 29° ESE 09:55:05 29° ESE 09:57:20 10° ENE
[s.n.52694] 4.1 09:55:12 29° ESE 09:55:12 29° ESE 09:57:27 10° ENE
[s.n.52692] 4.1 09:55:18 29° ESE 09:55:18 29° ESE 09:57:33 10° ENE
[s.n.52687] 4.1 09:55:25 29° ESE 09:55:25 29° ESE 09:57:41 10° ENE
[s.n.52685] 4.0 09:55:32 29° ESE 09:55:32 29° ESE 09:57:47 10° ENE
[s.n.52690] 4.0 09:55:39 30° ESE 09:55:39 30° ESE 09:57:55 10° ENE
[s.n.52688] 4.0 09:55:45 30° ESE 09:55:45 30° ESE 09:58:02 10° ENE
EO 1 Del DPAF 3.5 09:52:12 10° N 09:55:32 41° WNW 09:55:37 41° WNW
[s.n.52683] 4.0 09:55:52 30° ESE 09:55:52 30° ESE 09:58:09 10° ENE
[s.n.52686] 4.0 09:55:59 30° ESE 09:55:59 30° ESE 09:58:16 10° ENE
Resurs 1-4 Rocket 3.5 09:51:44 10° NNW 09:55:50 24° WNW 09:57:20 21° W
[s.n.52681] 4.0 09:56:06 30° ESE 09:56:06 30° ESE 09:58:24 10° ENE
[s.n.52679] 4.0 09:56:13 30° ESE 09:56:13 30° ESE 09:58:31 10° ENE
[s.n.52684] 4.0 09:56:20 30° ESE 09:56:20 30° ESE 09:58:38 10° ENE
[s.n.52682] 4.0 09:56:26 30° ESE 09:56:26 30° ESE 09:58:45 10° ENE
[s.n.52677] 4.0 09:56:34 31° ESE 09:56:34 31° ESE 09:58:53 10° ENE
[s.n.52680] 4.0 09:56:41 31° ESE 09:56:41 31° ESE 09:59:01 10° ENE
[s.n.52675] 4.0 09:56:47 31° ESE 09:56:47 31° ESE 09:59:08 10° ENE
[s.n.52678] 3.9 09:56:54 31° ESE 09:56:54 31° ESE 09:59:15 10° ENE
[s.n.52673] 3.9 09:57:02 31° ESE 09:57:02 31° ESE 09:59:23 10° ENE
[s.n.52676] 3.9 09:57:08 31° ESE 09:57:08 31° ESE 09:59:29 10° ENE
[s.n.52671] 3.9 09:57:16 31° ESE 09:57:16 31° ESE 09:59:37 10° ENE
[s.n.52669] 3.9 09:57:22 31° ESE 09:57:22 31° ESE 09:59:45 10° ENE
[s.n.52674] 3.9 09:57:29 32° ESE 09:57:29 32° ESE 09:59:52 10° ENE
[s.n.52672] 3.9 09:57:36 32° ESE 09:57:36 32° ESE 09:59:59 10° ENE
[s.n.52667] 3.9 09:57:44 32° ESE 09:57:44 32° ESE 10:00:07 10° ENE
[s.n.52665] 3.9 09:57:51 32° ESE 09:57:51 32° ESE 10:00:15 10° ENE
[s.n.52670] 3.9 09:57:58 32° ESE 09:57:58 32° ESE 10:00:22 10° ENE
[s.n.52668] 3.9 09:58:05 32° ESE 09:58:05 32° ESE 10:00:30 10° ENE
[s.n.52666] 3.9 09:58:12 32° ESE 09:58:12 32° ESE 10:00:37 10° ENE
Meteor 1-28 Rocket 3.4 09:57:55 47° WSW 09:58:02 47° W 10:01:39 10° NNW
[s.n.52663] 3.8 09:58:19 32° ESE 09:58:19 32° ESE 10:00:45 10° ENE
[s.n.52662] 3.8 09:58:26 33° ESE 09:58:26 33° ESE 10:00:52 10° ENE
[s.n.52664] 3.8 09:58:33 33° ESE 09:58:33 33° ESE 10:00:59 10° ENE
[s.n.52661] 3.8 09:58:40 33° SE 09:58:40 33° SE 10:01:07 10° ENE
[s.n.52660] 3.8 09:58:47 33° SE 09:58:47 33° SE 10:01:14 10° ENE
[s.n.52656] 3.8 09:58:54 33° SE 09:58:54 33° SE 10:01:22 10° ENE
[s.n.52658] 3.8 09:59:02 33° SE 09:59:02 33° SE 10:01:30 10° ENE
[s.n.52659] 3.8 09:59:08 33° SE 09:59:08 33° SE 10:01:37 10° ENE
[s.n.52657] 3.8 09:59:16 34° SE 09:59:16 34° SE 10:01:45 10° ENE
Cosmos 292 Rocket 4.4 10:00:36 32° WSW 10:02:03 41° WNW 10:06:36 10° N
SL-16 R/B 3.1 10:00:07 30° SW 10:02:04 37° W 10:07:47 10° NNW
Cosmos 1943 Rocket 2.6 09:59:13 10° NW 10:04:28 39° WSW 10:06:33 29° SSW
Cosmos 2297 3.9 10:01:03 10° NNW 10:06:36 50° WSW 10:10:28 19° S
Cosmos 1408 4.3 10:04:50 11° SSE 10:07:52 29° E 10:11:03 10° NNE
Cosmos 2228 3.0 10:04:47 10° NNW 10:09:06 66° W 10:11:19 27° S
ADEOS II 3.0 10:06:34 10° N 10:11:12 33° WNW 10:13:19 24° WSW
IDEFIX/ARIANE 42P 3.3 10:06:41 10° N 10:11:34 39° WNW 10:13:52 26° WSW
ARIANE 5 R/B 4.1 10:07:17 10° NE 10:11:42 30° E 10:16:03 10° SSE
CBERS-1 4.0 10:09:43 10° NNE 10:14:52 82° ESE 10:18:36 19° S
Cosmos 2056 Rocket 4.0 10:14:38 15° S 10:18:43 57° ESE 10:23:51 10° NNE
OAO 2 Rocket 3.7 10:16:58 28° SW 10:19:07 45° SSE 10:23:48 10° E
Cosmos 2058 Rocket 4.3 10:15:11 10° N 10:19:19 41° E 10:23:25 10° SSE
Cosmos 1455 4.2 10:19:49 10° NW 10:21:07 13° WNW 10:21:07 13° WNW
NOSS 3-3 (A) 4.1 10:23:18 23° SW 10:26:47 58° NW 10:32:59 10° NNE
NOSS 3-3 (C) 4.0 10:23:24 23° SW 10:26:52 58° NW 10:33:05 10° NNE
IRS-1D 4.0 10:21:52 10° N 10:26:59 48° WNW 10:30:15 21° SW
Cosmos 1271 Rocket 3.9 10:24:04 10° NW 10:27:14 25° W 10:27:50 24° WSW
Cosmos 2251 Rocket 3.5 10:24:49 10° NNW 10:30:00 59° WSW 10:35:11 10° S
SL-16 R/B 4.1 10:27:21 10° W 10:30:36 16° NW 10:33:59 10° NNW
Cosmos 2369 Rocket 2.1 10:25:42 10° NNW 10:31:14 66° WSW 10:36:45 10° S
DNEPR-1 R/B 3.8 10:29:53 24° SW 10:32:13 53° NW 10:36:38 10° NNE
Cosmos 2218 Rocket 4.0 10:30:17 10° N 10:36:34 88° E 10:42:54 10° S
Cosmos 1241 Rocket 4.5 10:32:14 16° SSW 10:37:15 83° ESE 10:43:29 10° NNE
Cosmos 1656 Rocket 3.5 10:33:05 10° NNW 10:38:29 72° WSW 10:43:52 10° SSE
IRS-P3 4.5 10:34:29 10° NNE 10:39:48 65° ESE 10:45:05 10° S
Cosmos 1606 Rocket 4.0 10:37:39 10° NNW 10:41:49 42° W 10:45:25 13° SSW
COSMOS 2455 4.3 10:40:30 12° W 10:44:45 24° NW 10:49:33 10° N
Helios 1B rocket 2.8 10:43:14 10° N 10:47:09 47° WNW 10:50:15 15° SW
Cosmos 2181 Rocket 4.1 10:42:09 11° SSW 10:48:00 59° W 10:54:07 10° N
PAYLOAD A 3.9 10:45:52 10° NNE 10:50:38 89° WNW 10:55:31 10° SSW
CZ-2D R/B 4.2 10:46:54 10° NNE 10:50:47 50° E 10:54:37 10° S
ALOS 2.2 10:46:58 10° N 10:51:39 83° WNW 10:56:18 10° SSW
Cosmos 1959 Rocket 4.5 10:45:32 10° N 10:51:45 73° W 10:57:52 10° S
Meteor 1-29 3.2 10:48:43 10° NNE 10:51:57 63° ESE 10:55:10 10° S
Cosmos 1603 4.3 10:49:16 15° SW 10:53:33 41° WNW 10:58:54 10° N
Cosmos 2098 4.2 10:50:56 10° N 10:53:56 78° E 10:56:59 10° S
Genesis I 3.4 10:52:14 10° NNW 10:56:17 79° ENE 11:00:13 10° SE
MOS 1-B Rocket 3.9 10:51:51 10° S 10:57:22 55° W 11:02:56 10° NNW
CZ-2C R/B 2.5 10:53:09 10° N 10:58:16 75° WNW 11:03:11 10° SSW
Lacrosse 5 rocket 4.0 10:58:55 10° NNW 10:59:19 10° NNW 10:59:44 10° NNW
Lacrosse 5 4.3 10:57:24 10° NW 10:59:42 13° NNW 11:01:58 10° N
Okean 1-7 Rocket 3.6 10:55:52 10° S 11:00:17 86° W 11:04:43 10° N
Cosmos 1420 Rocket 4.1 11:00:46 10° SSW 11:05:53 66° WNW 11:11:04 10° NNE
Lacrosse 4 Rocket 1.5 11:04:14 10° SSW 11:08:34 83° ESE 11:12:49 10° NNE
Intercosmos 25 Rocket 4.4 11:06:07 10° N 11:09:41 56° E 11:14:53 10° SSE
Cosmos 1825 2.1 11:12:28 10° SSW 11:16:09 72° W 11:19:53 10° N
Cosmos 407 Rocket 4.0 11:11:31 10° NW 11:16:26 39° WSW 11:21:15 10° S
GPS 2-04 Rocket1 2.6 11:13:03 10° WSW 11:16:26 54° S 11:19:56 10° E
Cosmos 1602 Rocket 3.8 11:13:59 10° S 11:18:27 80° E 11:22:54 10° N
Cosmos 1633 3.3 11:19:53 10° S 11:23:20 55° E 11:26:49 10° NNE
Cosmos 1452 Rocket 3.9 11:18:18 10° S 11:23:33 71° ESE 11:28:49 10° NNE
METEOR-M 4.2 11:19:12 10° N 11:24:31 69° WNW 11:29:49 10° SSW
BREEZE-M DEB (TANK) 4.3 11:22:56 10° W 11:25:28 18° NNW 11:27:12 10° NNE
Cosmos 1140 Rocket 4.3 11:21:48 10° NW 11:26:18 30° W 11:30:47 10° SSW
